Terminal Aerodrome Forecast
Issued by NWS Boston, MA

Home | Current Version | Previous Version | Text Only | Print | Product List | Glossary On
Versions: 1 2 3 4 5 6 7 8 9 10 11 12 13 14 15 16 17 18 19 20 21 22 23 24 25 26 27 28 29 30 31 32 33 34 35 36 37 38 39 40 41 42 43
000
FTUS41 KBOX 311737
TAFPVD
TAF
KPVD 311737Z 3118/0118 17011KT P6SM SCT050 BKN080 BKN250
     FM312300 20008KT P6SM FEW050 SCT250
     FM010300 VRB03KT P6SM SCT120
     FM011500 16007KT P6SM FEW050 SCT250=

USA.gov is the U.S. government's official web portal to all federal, state and local government web resources and services.